GW1859 Weather Reports


time (UTC)temp
F
wind
direction
speed
knots
gust
knots
rain 1hr
in
rain 24hr
in
rain mn
in
humidity
%
barometer
mb
20260831222455 105 274 1.7 3.5 0.00 0.00 0.00 23 1014.2
20260831221954 105 44 0.0 2.6 0.00 0.00 0.00 23 1014.5
20260831221450 105 43 1.7 7.0 0.00 0.00 0.00 24 1014.3
20260831220946 106 112 0.0 3.5 0.00 0.00 0.00 23 1014.2
20260831220441 107 216 1.7 4.3 0.00 0.00 0.00 22 1014.5
20260831215936 106 13 1.7 3.5 0.00 0.00 0.00 22 1014.6
20260831215432 106 307 0.9 3.5 0.00 0.00 0.00 22 1014.3
20260831214928 105 336 0.9 5.2 0.00 0.00 0.00 23 1014.3
20260831214425 105 180 3.5 4.3 0.00 0.00 0.00 22 1014.7
20260831213921 106 70 1.7 3.5 0.00 0.00 0.00 22 1014.5
20260831213417 106 108 0.9 3.5 0.00 0.00 0.00 21 1014.9
20260831212917 105 60 1.7 5.2 0.00 0.00 0.00 21 1014.8
20260831212414 106 311 1.7 4.3 0.00 0.00 0.00 20 1014.9
20260831211913 106 228 2.6 5.2 0.00 0.00 0.00 19 1015.1
20260831211408 106 234 0.9 5.2 0.00 0.00 0.00 20 1015.1
20260831210908 106 307 0.0 3.5 0.00 0.00 0.00 21 1014.9
20260831210403 106 300 3.5 3.5 0.00 0.00 0.00 22 1015.0
20260831205859 105 59 0.9 7.0 0.00 0.00 0.00 22 1015.0
20260831205355 105 294 0.9 7.0 0.00 0.00 0.00 22 1015.0
20260831204855 105 264 2.6 5.2 0.00 0.00 0.00 22 1015.3
20260831204354 105 193 3.5 5.2 0.00 0.00 0.00 22 1015.2
20260831203853 105 8 1.7 7.0 0.00 0.00 0.00 22 1015.2
20260831203348 105 227 0.0 7.8 0.00 0.00 0.00 22 1015.2
20260831202846 106 74 2.6 3.5 0.00 0.00 0.00 22 1015.4
20260831202342 105 255 2.6 4.3 0.00 0.00 0.00 22 1015.4
20260831201841 105 223 4.3 9.6 0.00 0.00 0.00 22 1015.4
20260831201340 105 60 1.7 2.6 0.00 0.00 0.00 22 1015.4
20260831200836 105 239 1.7 7.8 0.00 0.00 0.00 23 1015.5
20260831200331 106 255 1.7 4.3 0.00 0.00 0.00 22 1015.3
20260831195826 106 155 1.7 9.6 0.00 0.00 0.00 23 1015.6
20260831195322 106 320 1.7 2.6 0.00 0.00 0.00 23 1015.6
20260831194818 106 64 0.9 3.5 0.00 0.00 0.00 23 1015.6
20260831194313 104 19 0.0 7.8 0.00 0.00 0.00 25 1015.5
20260831193811 105 223 2.6 5.2 0.00 0.00 0.00 24 1015.5
20260831193307 105 335 1.7 6.1 0.00 0.00 0.00 25 1015.5
20260831192802 105 211 0.0 5.2 0.00 0.00 0.00 25 1015.8
20260831192257 103 146 0.9 7.8 0.00 0.00 0.00 26 1015.7
20260831191753 104 138 4.3 7.8 0.00 0.00 0.00 25 1015.8
20260831191249 104 10 1.7 5.2 0.00 0.00 0.00 26 1015.6
20260831190745 104 218 3.5 5.2 0.00 0.00 0.00 26 1015.7
20260831190244 103 182 0.0 6.1 0.00 0.00 0.00 26 1015.8
20260831185744 104 329 1.7 8.7 0.00 0.00 0.00 25 1015.7
20260831185240 105 327 0.9 8.7 0.00 0.00 0.00 26 1015.6
20260831184739 103 71 0.9 5.2 0.00 0.00 0.00 28 1016.1
20260831184235 103 296 0.9 7.8 0.00 0.00 0.00 27 1016.0
20260831183730 103 177 2.6 9.6 0.00 0.00 0.00 26 1015.9
20260831183229 103 214 1.7 5.2 0.00 0.00 0.00 27 1016.1
20260831182728 103 88 1.7 3.5 0.00 0.00 0.00 28 1016.0
20260831182224 101 198 5.2 6.1 0.00 0.00 0.00 28 1016.2
20260831181724 101 256 5.2 7.8 0.00 0.00 0.00 29 1016.1
20260831181219 101 228 3.5 9.6 0.00 0.00 0.00 29 1016.1
20260831180714 102 190 2.6 5.2 0.00 0.00 0.00 28 1016.2
20260831180209 101 213 6.1 10.4 0.00 0.00 0.00 28 1016.3
20260831175708 101 212 7.0 9.6 0.00 0.00 0.00 28 1016.4
20260831175205 100 172 3.5 11.3 0.00 0.00 0.00 30 1016.4
20260831174705 100 81 1.7 13.0 0.00 0.00 0.00 30 1016.5
20260831174200 101 229 3.5 9.6 0.00 0.00 0.00 30 1016.6
20260831173659 100 170 1.7 4.3 0.00 0.00 0.00 31 1016.5
20260831173155 100 255 3.5 4.3 0.00 0.00 0.00 31 1016.6
20260831172655 100 240 0.9 4.3 0.00 0.00 0.00 32 1016.6
20260831172150 99 207 3.5 7.8 0.00 0.00 0.00 32 1016.7
20260831171644 99 216 5.2 6.1 0.00 0.00 0.00 31 1016.7
20260831171142 98 274 1.7 8.7 0.00 0.00 0.00 32 1017.1
20260831170638 97 254 2.6 3.5 0.00 0.00 0.00 33 1017.2
20260831170135 96 253 6.1 10.4 0.00 0.00 0.00 34 1017.1
20260831165630 97 169 1.7 6.1 0.00 0.00 0.00 33 1017.2
20260831165127 97 137 0.0 4.3 0.00 0.00 0.00 34 1017.1
20260831164623 97 209 5.2 5.2 0.00 0.00 0.00 33 1017.1
20260831164118 96 290 1.7 5.2 0.00 0.00 0.00 35 1017.3
20260831163613 96 217 1.7 7.8 0.00 0.00 0.00 35 1017.1
20260831163109 95 278 0.0 4.3 0.00 0.00 0.00 35 1017.1
20260831162608 95 215 4.3 7.8 0.00 0.00 0.00 35 1017.4
20260831162106 95 258 7.0 7.8 0.00 0.00 0.00 35 1017.2
20260831161602 95 286 2.6 7.8 0.00 0.00 0.00 36 1017.3
20260831161058 94 264 7.8 9.6 0.00 0.00 0.00 35 1017.1
20260831160557 94 197 1.7 4.3 0.00 0.00 0.00 37 1017.5
20260831160053 94 264 1.7 5.2 0.00 0.00 0.00 37 1017.2
20260831155553 93 204 2.6 5.2 0.00 0.00 0.00 37 1017.3
20260831155048 93 241 2.6 5.2 0.00 0.00 0.00 38 1017.4
20260831154544 92 242 7.0 8.7 0.00 0.00 0.00 38 1017.4
20260831154044 91 209 2.6 6.1 0.00 0.00 0.00 39 1017.3
20260831153543 91 221 1.7 7.8 0.00 0.00 0.00 39 1017.3
20260831153041 91 200 1.7 6.1 0.00 0.00 0.00 40 1017.2
20260831152536 91 220 2.6 2.6 0.00 0.00 0.00 40 1017.4
20260831152032 90 242 4.3 8.7 0.00 0.00 0.00 40 1017.4
20260831151531 90 229 2.6 7.8 0.00 0.00 0.00 40 1017.4
20260831151031 90 8 1.7 5.2 0.00 0.00 0.00 41 1017.5
20260831150526 89 183 3.5 7.0 0.00 0.00 0.00 41 1017.3
20260831150022 89 314 1.7 8.7 0.00 0.00 0.00 41 1017.4
20260831145516 89 148 1.7 4.3 0.00 0.00 0.00 41 1017.5
20260831145013 88 194 0.0 3.5 0.00 0.00 0.00 42 1017.5
20260831144508 88 359 1.7 7.8 0.00 0.00 0.00 42 1017.7
20260831144003 87 82 0.0 3.5 0.00 0.00 0.00 43 1017.8
20260831143457 86 218 2.6 3.5 0.00 0.00 0.00 44 1017.6
20260831142953 85 48 1.7 6.1 0.00 0.00 0.00 46 1017.4
20260831142449 84 258 1.7 4.3 0.00 0.00 0.00 47 1017.5
20260831141944 83 194 2.6 7.0 0.00 0.00 0.00 47 1017.5
20260831141443 83 250 1.7 5.2 0.00 0.00 0.00 48 1017.5
20260831140939 83 252 1.7 4.3 0.00 0.00 0.00 49 1017.6
20260831140433 82 271 2.6 2.6 0.00 0.00 0.00 49 1017.5
20260831135932 82 207 1.7 3.5 0.00 0.00 0.00 49 1017.6
20260831135431 81 214 0.0 3.5 0.00 0.00 0.00 50 1017.3
20260831134926 81 224 1.7 2.6 0.00 0.00 0.00 51 1017.5
20260831134423 81 259 0.9 2.6 0.00 0.00 0.00 51 1017.4
20260831133922 80 256 0.0 4.3 0.00 0.00 0.00 52 1017.5
20260831133417 79 247 0.0 3.5 0.00 0.00 0.00 52 1017.3
20260831132917 79 200 0.9 1.7 0.00 0.00 0.00 53 1017.4
20260831132413 78 187 0.9 2.6 0.00 0.00 0.00 54 1017.5
20260831131912 78 239 0.9 3.5 0.00 0.00 0.00 55 1017.2
20260831131408 77 255 0.0 1.7 0.00 0.00 0.00 56 1017.2
20260831130903 77 299 0.0 3.5 0.00 0.00 0.00 56 1017.0
20260831130359 76 296 0.0 1.7 0.00 0.00 0.00 58 1016.7
20260831125857 76 331 0.9 1.7 0.00 0.00 0.00 58 1017.1
20260831125353 75 37 0.9 1.7 0.00 0.00 0.00 59 1017.0
20260831124848 75 205 0.0 1.7 0.00 0.00 0.00 60 1017.1
20260831124345 74 38 0.0 1.7 0.00 0.00 0.00 60 1016.8
20260831123844 74 1 0.0 1.7 0.00 0.00 0.00 61 1017.0
20260831123343 73 334 0.9 1.7 0.00 0.00 0.00 62 1016.7
20260831122838 73 321 0.0 0.9 0.00 0.00 0.00 62 1016.7
20260831122334 73 343 0.0 0.0 0.00 0.00 0.00 62 1016.8
20260831121834 73 242 0.0 0.9 0.00 0.00 0.00 62 1016.7
20260831121330 73 305 0.0 0.9 0.00 0.00 0.00 62 1016.5
20260831120826 73 312 0.9 0.9 0.00 0.00 0.00 62 1016.6
20260831120320 73 343 0.0 1.7 0.00 0.00 0.00 62 1016.5
20260831115815 73 62 0.0 0.9 0.00 0.00 0.00 61 1016.6
20260831115312 73 37 0.0 0.0 0.00 0.00 0.00 61 1016.7
20260831114810 73 335 0.9 0.9 0.00 0.00 0.00 61 1016.8
20260831114309 73 333 0.0 1.7 0.00 0.00 0.00 61 1016.5
20260831113806 73 341 0.9 1.7 0.00 0.00 0.00 61 1016.7
20260831113300 73 287 0.0 0.9 0.00 0.00 0.00 61 1016.5
20260831112759 74 327 0.0 0.0 0.00 0.00 0.00 61 1016.5
20260831112255 74 339 0.0 0.0 0.00 0.00 0.00 61 1016.4
20260831111750 74 309 0.0 0.0 0.00 0.00 0.00 60 1016.4
20260831111246 74 309 0.0 0.0 0.00 0.00 0.00 60 1016.6
20260831110742 75 307 0.0 0.9 0.00 0.00 0.00 59 1016.5
20260831110237 75 306 0.9 1.7 0.00 0.00 0.00 58 1016.5
20260831105735 76 266 0.0 0.9 0.00 0.00 0.00 57 1016.5
20260831105231 76 337 0.9 0.9 0.00 0.00 0.00 57 1016.3
20260831104726 76 293 0.0 1.7 0.00 0.00 0.00 56 1016.2
20260831104223 76 255 0.9 1.7 0.00 0.00 0.00 56 1016.3
20260831103722 76 273 1.7 1.7 0.00 0.00 0.00 56 1016.3
20260831103218 76 231 0.9 1.7 0.00 0.00 0.00 56 1015.8
20260831102718 76 217 1.7 2.6 0.00 0.00 0.00 56 1016.0
20260831102213 76 210 1.7 1.7 0.00 0.00 0.00 56 1016.0
20260831101708 76 216 0.9 2.6 0.00 0.00 0.00 56 1016.3
20260831101204 76 312 0.0 3.5 0.00 0.00 0.00 57 1016.0
20260831100700 76 201 0.0 2.6 0.00 0.00 0.00 57 1015.9
20260831100156 76 255 0.9 2.6 0.00 0.00 0.00 56 1016.0
20260831095653 77 264 0.0 2.6 0.00 0.00 0.00 56 1016.0
20260831095149 77 281 0.9 1.7 0.00 0.00 0.00 56 1015.8
20260831094644 77 275 1.7 2.6 0.00 0.00 0.00 56 1015.9
20260831094140 77 187 0.0 3.5 0.00 0.00 0.00 56 1015.6
20260831093635 77 237 0.0 3.5 0.00 0.00 0.00 55 1015.5
20260831093131 77 151 0.0 2.6 0.00 0.00 0.00 55 1015.7
20260831092627 78 252 0.9 3.5 0.00 0.00 0.00 55 1015.6
20260831092123 78 224 0.0 1.7 0.00 0.00 0.00 55 1015.4
20260831091622 78 276 0.9 3.5 0.00 0.00 0.00 55 1015.5
20260831091118 78 22 0.0 1.7 0.00 0.00 0.00 55 1015.5
20260831090613 78 250 0.9 1.7 0.00 0.00 0.00 54 1015.3
20260831090109 78 255 0.0 2.6 0.00 0.00 0.00 54 1015.7
20260831085604 79 41 0.9 2.6 0.00 0.00 0.00 54 1015.3
20260831085059 79 243 1.7 3.5 0.00 0.00 0.00 53 1015.5
20260831084555 79 215 1.7 2.6 0.00 0.00 0.00 53 1015.6
20260831084051 79 197 3.5 3.5 0.00 0.00 0.00 52 1015.3
20260831083547 79 265 1.7 3.5 0.00 0.00 0.00 52 1015.4
20260831083042 79 222 0.0 3.5 0.00 0.00 0.00 52 1015.4
20260831082541 79 258 0.9 2.6 0.00 0.00 0.00 52 1015.2
20260831082037 80 250 1.7 2.6 0.00 0.00 0.00 52 1015.1
20260831081532 80 196 0.9 4.3 0.00 0.00 0.00 52 1015.1
20260831081029 80 242 0.9 2.6 0.00 0.00 0.00 51 1015.1
20260831080528 80 222 0.9 2.6 0.00 0.00 0.00 51 1015.0
20260831080024 80 192 0.9 3.5 0.00 0.00 0.00 51 1015.0
20260831075519 81 281 0.0 1.7 0.00 0.00 0.00 50 1015.0
20260831075015 81 294 1.7 1.7 0.00 0.00 0.00 50 1014.9
20260831074514 81 199 0.0 1.7 0.00 0.00 0.00 50 1014.9
20260831074014 81 315 0.9 1.7 0.00 0.00 0.00 49 1014.7
20260831073509 81 243 1.7 2.6 0.00 0.00 0.00 49 1014.9
20260831073008 81 223 0.0 2.6 0.00 0.00 0.00 49 1015.0
20260831072503 82 110 0.0 3.5 0.00 0.00 0.00 49 1015.0
20260831072000 82 343 0.0 2.6 0.00 0.00 0.00 49 1014.8
20260831071458 82 353 0.9 1.7 0.00 0.00 0.00 49 1015.2
20260831070954 82 255 0.0 3.5 0.00 0.00 0.00 49 1015.2
20260831070452 82 323 0.9 1.7 0.00 0.00 0.00 48 1015.2
20260831065952 82 153 0.9 3.5 0.00 0.00 0.00 48 1015.2
20260831065450 82 301 1.7 2.6 0.00 0.00 0.00 48 1015.1
20260831064945 83 281 1.7 1.7 0.00 0.00 0.00 47 1015.0
20260831064440 83 303 1.7 2.6 0.00 0.00 0.00 47 1015.3
20260831063937 83 253 1.7 3.5 0.00 0.00 0.00 46 1015.1
20260831063432 84 180 0.0 3.5 0.00 0.00 0.00 46 1015.4
20260831062931 84 205 0.9 2.6 0.00 0.00 0.00 45 1015.3
20260831062429 84 186 1.7 4.3 0.00 0.00 0.00 45 1015.3
20260831061926 85 231 1.7 3.5 0.00 0.00 0.00 45 1015.2
20260831061424 85 213 1.7 3.5 0.00 0.00 0.00 44 1015.2
20260831060921 85 247 0.0 3.5 0.00 0.00 0.00 44 1015.0
20260831060421 85 204 1.7 3.5 0.00 0.00 0.00 43 1015.0
20260831055921 85 306 0.9 2.6 0.00 0.00 0.00 43 1014.8
20260831055416 86 227 1.7 4.3 0.00 0.00 0.00 43 1014.9
20260831054911 86 194 1.7 2.6 0.00 0.00 0.00 43 1014.7
20260831054406 86 152 3.5 3.5 0.00 0.00 0.00 42 1014.2
20260831053905 86 175 0.9 4.3 0.00 0.00 0.00 42 1014.1
20260831053403 87 48 1.7 3.5 0.00 0.00 0.00 42 1014.0
20260831052859 87 358 1.7 3.5 0.00 0.00 0.00 41 1013.8
20260831052358 87 43 0.0 7.0 0.00 0.00 0.00 41 1013.8
20260831051856 87 151 2.6 4.3 0.00 0.00 0.00 41 1013.7
20260831051355 87 268 0.9 3.5 0.00 0.00 0.00 41 1013.8
20260831050850 87 332 0.9 1.7 0.00 0.00 0.00 41 1013.8
20260831050349 87 326 0.0 3.5 0.00 0.00 0.00 40 1013.5
20260831045844 87 321 0.0 2.6 0.00 0.00 0.00 40 1013.6
20260831045343 87 193 1.7 3.5 0.00 0.00 0.00 40 1013.6
20260831044838 87 277 1.7 4.3 0.00 0.00 0.00 40 1013.6
20260831044338 87 22 1.7 1.7 0.00 0.00 0.00 40 1013.8
20260831043835 87 358 1.7 2.6 0.00 0.00 0.00 40 1013.7
20260831043334 87 110 0.9 2.6 0.00 0.00 0.00 40 1013.5
20260831042829 88 64 0.0 1.7 0.00 0.00 0.00 40 1013.4
20260831042329 88 285 2.6 2.6 0.00 0.00 0.00 40 1013.5
20260831041824 88 349 1.7 2.6 0.00 0.00 0.00 40 1013.5
20260831041323 88 308 0.0 2.6 0.00 0.00 0.00 40 1013.4
20260831040818 88 108 0.0 1.7 0.00 0.00 0.00 39 1013.5
20260831040318 88 143 1.7 3.5 0.00 0.00 0.00 39 1013.1
20260831035816 88 18 1.7 2.6 0.00 0.00 0.00 39 1013.4
20260831035315 88 26 0.9 3.5 0.00 0.00 0.00 39 1013.3
20260831034810 89 19 0.0 2.6 0.00 0.00 0.00 39 1013.4
20260831034305 89 47 0.9 2.6 0.00 0.00 0.00 39 1013.4
20260831033800 89 95 0.0 3.5 0.00 0.00 0.00 39 1013.3
20260831033300 89 47 0.9 1.7 0.00 0.00 0.00 39 1013.3
20260831032756 89 277 0.0 2.6 0.00 0.00 0.00 38 1013.4
20260831032250 89 133 1.7 1.7 0.00 0.00 0.00 38 1013.4
20260831031746 89 329 0.0 2.6 0.00 0.00 0.00 38 1013.5
20260831031245 89 127 0.9 2.6 0.00 0.00 0.00 38 1013.6
20260831030740 89 3 1.7 2.6 0.00 0.00 0.00 38 1013.3
20260831030238 90 221 1.7 2.6 0.00 0.00 0.00 37 1013.6
20260831025737 90 314 1.7 1.7 0.00 0.00 0.00 37 1013.4
20260831025232 90 0 0.0 2.6 0.00 0.00 0.00 36 1013.4
20260831024728 90 25 2.6 2.6 0.00 0.00 0.00 36 1013.4
20260831024226 91 15 0.0 1.7 0.00 0.00 0.00 35 1013.2
20260831023726 91 91 2.6 2.6 0.00 0.00 0.00 35 1013.3
20260831023225 91 342 0.9 2.6 0.00 0.00 0.00 35 1013.3
20260831022721 91 5 0.9 1.7 0.00 0.00 0.00 34 1013.0
20260831022220 91 338 0.9 2.6 0.00 0.00 0.00 34 1013.3
20260831021720 92 48 0.0 3.5 0.00 0.00 0.00 34 1012.9
20260831021220 92 359 0.9 4.3 0.00 0.00 0.00 34 1013.2
20260831020717 92 35 0.0 2.6 0.00 0.00 0.00 34 1012.8
20260831020216 92 301 1.7 2.6 0.00 0.00 0.00 34 1012.8
20260831015712 92 17 0.9 2.6 0.00 0.00 0.00 34 1012.5
20260831015207 92 124 0.0 3.5 0.00 0.00 0.00 34 1012.6
20260831014702 93 250 0.9 4.3 0.00 0.00 0.00 33 1012.5
20260831014156 93 215 1.7 5.2 0.00 0.00 0.00 33 1012.4
20260831013653 93 206 0.0 2.6 0.00 0.00 0.00 33 1012.3
20260831013152 93 104 1.7 3.5 0.00 0.00 0.00 33 1012.2
20260831012647 94 41 0.9 2.6 0.00 0.00 0.00 33 1012.4
20260831012143 94 101 1.7 2.6 0.00 0.00 0.00 33 1012.1
20260831011641 94 53 1.7 3.5 0.00 0.00 0.00 33 1012.1
20260831011137 94 38 0.0 2.6 0.00 0.00 0.00 34 1012.2
20260831010633 95 354 0.9 2.6 0.00 0.00 0.00 33 1012.1
20260831010129 95 41 0.9 3.5 0.00 0.00 0.00 33 1012.0
20260831005628 96 37 1.7 2.6 0.00 0.00 0.00 33 1012.2
20260831005124 96 353 1.7 2.6 0.00 0.00 0.00 33 1012.1
20260831004619 97 351 1.7 5.2 0.00 0.00 0.00 32 1012.1
20260831004115 97 187 0.0 4.3 0.00 0.00 0.00 32 1012.2
20260831003611 98 120 2.6 3.5 0.00 0.00 0.00 32 1012.1
20260831003107 98 8 1.7 3.5 0.00 0.00 0.00 32 1012.0
20260831002605 99 120 1.7 3.5 0.00 0.00 0.00 31 1012.1
20260831002100 100 224 0.9 1.7 0.00 0.00 0.00 30 1011.7
20260831001556 100 4 1.7 2.6 0.00 0.00 0.00 30 1011.8
20260831001052 101 222 3.5 3.5 0.00 0.00 0.00 30 1012.3
20260831000548 101 1 1.7 5.2 0.00 0.00 0.00 29 1011.8
20260831000048 103 48 0.0 7.0 0.00 0.00 0.00 28 1012.1
20260830235547 103 165 1.7 7.0 0.00 0.00 0.00 27 1012.1
20260830235042 103 215 3.5 5.2 0.00 0.00 0.00 26 1012.1
20260830234543 104 246 3.5 4.3 0.00 0.00 0.00 26 1012.0
20260830234038 104 231 1.7 5.2 0.00 0.00 0.00 26 1011.8
20260830233533 104 225 1.7 14.8 0.00 0.00 0.00 26 1011.6
20260830233029 105 236 1.7 4.3 0.00 0.00 0.00 25 1012.0
20260830232525 105 126 3.5 7.0 0.00 0.00 0.00 25 1011.6
20260830232021 105 217 2.6 5.2 0.00 0.00 0.00 25 1011.7
20260830231517 105 202 4.3 4.3 0.00 0.00 0.00 25 1011.5
20260830231015 105 210 0.0 7.0 0.00 0.00 0.00 25 1011.5
20260830230511 106 187 1.7 5.2 0.00 0.00 0.00 25 1011.4
20260830230011 106 267 0.9 7.0 0.00 0.00 0.00 25 1011.5
20260830225506 106 262 3.5 5.2 0.00 0.00 0.00 25 1011.3
20260830225006 106 264 2.6 5.2 0.00 0.00 0.00 25 1011.4
20260830224504 107 237 4.3 7.0 0.00 0.00 0.00 25 1011.6
20260830224001 107 143 3.5 7.8 0.00 0.00 0.00 25 1011.2
20260830223458 107 91 1.7 5.2 0.00 0.00 0.00 25 1011.3
20260830222957 106 177 0.0 2.6 0.00 0.00 0.00 25 1011.4